Stations météo

Publicité
Tholey, Allemagne (10706): Température de l'air & dewpoint: 11.11.2018 20:00:00 - 17.11.2018 20:00:00 (CET)Tholey, Allemagne (10706): Température de l'air 5cm & Température de l'air -5cm: 11.11.2018 20:00:00 - 17.11.2018 20:00:00 (CET)Tholey, Allemagne (10706): Température de l'air -20cm & Température de l'air -100cm: 11.11.2018 20:00:00 - 17.11.2018 20:00:00 (CET)Tholey, Allemagne (10706): Vitesse du vent & gusts: 11.11.2018 20:00:00 - 17.11.2018 20:00:00 (CET)Tholey, Allemagne (10706): Direction du vent: 11.11.2018 20:00:00 - 17.11.2018 20:00:00 (CET)Tholey, Allemagne (10706): reduced air pressure: 11.11.2018 20:00:00 - 17.11.2018 20:00:00 (CET)Tholey, Allemagne (10706): visibility: 11.11.2018 20:00:00 - 17.11.2018 20:00:00 (CET)Tholey, Allemagne (10706): Ensoleillement: 11.11.2018 20:00:00 - 17.11.2018 20:00:00 (CET)Tholey, Allemagne (10706): Quantités de précipitations: 11.11.2018 20:00:00 - 17.11.2018 20:00:00 (CET)
Date & Time tt [°C] td [°C] tt 5cm [°C] tt -5cm [°C] tt -20cm [°C] tt -100cm [°C] ff [km/h] ff [knt] fx [km/h] fx [knt] dd ppp [hPa] vv [km] sd [min] rr [mm]
17.11.2018 20:00:00 - - - - - - - - - - - - - - -
17.11.2018 19:00:00 5,9 -3,1 4,3 3,2 6,4 11,6 31 17 51 28 ENE 1027,1 52 0 0,0
17.11.2018 18:00:00 6,4 -3,0 4,8 3,8 6,4 11,6 31 17 55 30 ENE 1026,8 52 0 0,0
17.11.2018 17:00:00 6,4 -1,4 5,0 4,7 6,4 11,6 31 17 53 28 ENE 1026,4 48 47 0,0
17.11.2018 16:00:00 6,9 -0,6 6,4 5,9 6,3 11,6 29 16 49 27 E 1026,4 25 60 0,0
17.11.2018 15:00:00 7,1 -0,8 7,4 6,7 6,1 11,6 35 19 53 29 ENE 1026,6 22 60 0,0
17.11.2018 14:00:00 7,1 -0,1 8,2 6,9 5,9 11,6 30 16 53 29 E 1026,7 16 60 0,0
17.11.2018 13:00:00 6,1 -0,8 7,3 6,5 5,7 11,6 36 19 58 32 E 1026,7 13 60 0,0
17.11.2018 12:00:00 5,5 -0,3 6,5 5,6 5,6 11,6 37 20 61 33 E 1027,1 14 60 0,0
17.11.2018 11:00:00 4,7 -0,6 5,7 4,6 5,5 11,6 37 20 65 35 E 1027,6 14 60 0,0
17.11.2018 10:00:00 3,5 -0,6 4,2 3,2 5,5 11,6 30 16 50 27 ENE 1028,2 12 60 0,0
17.11.2018 09:00:00 2,8 -0,9 2,5 1,7 5,6 11,6 29 16 48 26 ENE 1028,1 15 46 0,0
17.11.2018 08:00:00 2,2 -1,1 0,8 1,3 5,8 11,7 23 12 40 22 ENE 1028,0 13 0 0,0
17.11.2018 07:00:00 2,4 -0,9 1,0 1,4 5,9 11,7 23 12 41 22 ENE 1027,6 13 0 0,0
17.11.2018 06:00:00 2,6 -0,8 1,2 1,5 6,1 11,7 24 13 41 22 ENE 1027,6 14 0 0,0
17.11.2018 05:00:00 2,3 -0,6 0,9 1,6 6,2 11,7 24 13 38 21 ENE 1027,7 13 0 0,0
17.11.2018 04:00:00 2,0 -0,3 0,6 1,7 6,4 11,7 21 11 31 17 ENE 1027,9 11 0 0,0
17.11.2018 03:00:00 2,2 -0,3 0,7 1,9 6,5 11,7 20 11 30 16 NE 1028,4 12 0 0,0
17.11.2018 02:00:00 2,5 -0,1 0,9 2,1 6,7 11,7 19 10 29 16 NE 1028,3 13 0 0,0
17.11.2018 01:00:00 2,9 0,0 1,2 2,4 6,9 11,7 17 9 29 16 ENE 1028,3 13 0 0,0
17.11.2018 00:00:00 3,3 0,1 1,7 2,7 7,1 11,7 16 9 30 16 ENE 1028,3 14 0 0,0
16.11.2018 23:00:00 3,6 0,1 2,1 3,0 7,3 11,7 21 11 37 20 ENE 1028,4 14 0 0,0
16.11.2018 22:00:00 4,1 0,6 2,7 3,4 7,4 11,7 25 13 42 23 ENE 1028,5 14 0 0,0
16.11.2018 21:00:00 4,1 0,7 2,7 3,7 7,6 11,7 24 13 41 22 ENE 1028,2 14 0 0,0
16.11.2018 20:00:00 4,5 0,8 3,0 4,1 7,8 11,7 22 12 33 18 ENE 1028,3 15 0 0,0
16.11.2018 19:00:00 4,6 1,0 3,2 4,6 8,0 11,8 23 12 35 19 NE 1028,3 14 0 0,0
16.11.2018 18:00:00 5,0 1,5 3,5 5,4 8,0 11,8 20 11 30 16 ENE 1027,9 12 0 0,0
16.11.2018 17:00:00 6,1 2,0 4,0 6,6 8,0 11,8 13 7 36 19 ENE 1027,7 13 47 0,0
16.11.2018 16:00:00 7,5 1,8 7,2 8,1 7,9 11,8 17 9 31 17 ENE 1027,3 15 60 0,0
16.11.2018 15:00:00 7,7 2,4 8,8 9,0 7,7 11,8 18 10 32 17 ENE 1027,5 13 60 0,0
16.11.2018 14:00:00 6,8 2,6 8,5 9,1 7,5 11,8 23 12 35 19 E 1027,8 8 60 0,0
16.11.2018 13:00:00 6,2 2,7 8,2 8,8 7,3 11,8 24 13 36 19 ENE 1028,0 6 60 0,0
16.11.2018 12:00:00 6,1 3,1 7,4 7,6 7,3 11,8 22 12 37 20 E 1028,3 7 59 0,0
16.11.2018 11:00:00 4,8 2,9 5,6 5,9 7,2 11,8 28 15 42 23 E 1028,6 5 20 0,0
16.11.2018 10:00:00 4,1 2,5 4,0 5,4 7,3 11,8 25 14 39 21 E 1028,9 5 0 0,0
16.11.2018 09:00:00 4,0 2,7 3,9 4,9 7,3 11,8 22 12 33 18 E 1028,8 4,6 0 0,0
16.11.2018 08:00:00 3,6 2,5 3,4 4,7 7,4 11,8 20 11 34 18 E 1028,4 4,5 0 0,0
16.11.2018 07:00:00 3,2 2,2 3,0 4,8 7,4 11,8 18 10 - - E 1028,1 5 0 0,0
16.11.2018 06:00:00 3,3 3,3 3,5 5,0 7,5 11,8 21 12 31 17 E 1028,1 1,4 0 0,0
16.11.2018 05:00:00 3,3 3,3 3,5 4,9 7,6 11,8 20 11 35 19 E 1027,8 0,1 0 0,0
16.11.2018 04:00:00 3,0 3,0 3,2 4,9 7,6 11,9 21 11 31 17 E 1027,8 0,1 0 0,0
16.11.2018 03:00:00 2,9 2,9 3,1 5,0 7,7 11,9 21 12 30 16 E 1028,0 0,1 0 0,0
16.11.2018 02:00:00 2,9 2,9 3,1 5,1 7,8 11,9 19 11 31 17 ENE 1028,2 0,1 0 0,0
16.11.2018 01:00:00 3,1 3,1 3,3 5,2 7,9 11,9 16 9 30 16 E 1028,2 0,1 0 0,0
16.11.2018 00:00:00 3,2 3,2 3,5 5,3 7,9 11,9 18 10 27 15 E 1027,9 0,1 0 0,0
15.11.2018 23:00:00 3,0 3,0 3,3 5,4 8,0 11,9 20 11 30 16 E 1027,8 0,1 0 0,0
15.11.2018 22:00:00 3,4 3,4 3,6 5,7 8,1 11,9 18 10 24 13 E 1027,8 0,1 0 0,0
15.11.2018 21:00:00 3,6 3,6 3,9 5,8 8,2 11,9 13 7 26 14 E 1027,6 0,1 0 0,0
15.11.2018 20:00:00 3,7 3,7 4,0 5,9 8,2 11,9 18 10 29 15 E 1027,4 0,1 0 0,0
15.11.2018 19:00:00 3,9 3,9 4,2 6,1 8,3 11,9 19 10 27 15 E 1027,1 0,1 0 0,0
15.11.2018 18:00:00 4,0 4,0 4,3 6,3 8,3 11,9 14 8 27 15 E 1027,0 0,1 0 0,0
15.11.2018 17:00:00 4,0 4,0 4,4 6,6 8,3 11,9 18 10 25 14 E 1027,1 0,1 0 0,0
15.11.2018 16:00:00 4,5 4,5 5,0 6,9 8,3 11,9 13 7 24 13 E 1027,2 0,1 0 0,0
15.11.2018 15:00:00 4,4 4,4 5,1 7,1 8,3 11,9 12 6 23 13 E 1027,1 0,1 0 0,0
15.11.2018 14:00:00 4,3 4,3 5,0 7,3 8,3 11,9 15 8 24 13 ENE 1027,2 0,1 0 0,0
15.11.2018 13:00:00 4,8 4,8 5,6 7,2 8,3 11,9 16 9 26 14 E 1027,3 0,1 0 0,0
15.11.2018 12:00:00 4,4 4,4 5,2 7,0 8,3 11,9 14 8 22 12 ENE 1027,7 0,1 0 0,0
15.11.2018 11:00:00 4,3 4,3 5,0 6,6 8,3 11,9 18 10 26 14 E 1028,0 0,1 0 0,0
15.11.2018 10:00:00 4,3 4,3 4,9 6,3 8,3 11,9 11 6 22 12 E 1028,0 0,1 0 0,0
15.11.2018 09:00:00 3,9 3,9 4,4 6,1 8,4 11,9 16 9 24 13 E 1027,9 0,1 0 0,0
15.11.2018 08:00:00 4,1 4,1 4,4 6,1 8,4 11,9 15 8 24 13 E 1027,7 0,1 0 0,0
15.11.2018 07:00:00 4,2 4,2 4,5 6,2 8,5 11,9 14 7 22 12 E 1027,5 0,1 0 0,0
15.11.2018 06:00:00 4,2 4,2 4,5 6,3 8,6 11,9 13 7 25 14 E 1027,6 0,1 0 0,0
15.11.2018 05:00:00 4,4 4,4 4,7 6,3 8,6 11,9 15 8 24 13 E 1027,6 0,1 0 0,0
15.11.2018 04:00:00 4,5 4,5 4,8 6,4 8,7 11,9 16 9 26 14 E 1027,6 0,2 0 0,0
15.11.2018 03:00:00 4,6 4,6 4,9 6,5 8,8 12,0 14 8 25 13 ENE 1027,9 0,4 0 0,0
15.11.2018 02:00:00 4,7 4,7 5,0 6,5 8,9 12,0 14 8 22 12 ENE 1027,9 0,2 0 0,0
15.11.2018 01:00:00 4,7 4,7 4,9 6,5 9,0 12,0 14 8 22 12 ENE 1027,8 0,2 0 0,0
15.11.2018 00:00:00 4,5 4,5 4,8 6,6 9,1 12,0 14 7 20 11 ENE 1027,9 0,1 0 0,0
14.11.2018 23:00:00 4,2 4,2 4,5 6,6 9,2 12,0 13 7 23 12 NE 1028,0 0,1 0 0,0
14.11.2018 22:00:00 3,9 3,9 4,2 6,8 9,3 12,0 12 6 18 10 ENE 1028,3 0,2 0 0,0
14.11.2018 21:00:00 4,2 4,2 4,6 7,1 9,5 12,0 13 7 19 10 ENE 1028,4 0,1 0 0,0
14.11.2018 20:00:00 4,9 4,9 5,1 7,3 9,6 12,0 13 7 20 11 ENE 1028,6 0,1 0 0,0
14.11.2018 19:00:00 5,0 4,9 5,1 7,3 9,8 12,0 15 8 21 11 ENE 1028,6 0,2 0 0,0
14.11.2018 18:00:00 6,1 5,3 4,5 8,2 9,8 12,0 8 5 14 7 E 1028,4 15 0 0,0
14.11.2018 17:00:00 8,3 5,9 6,7 9,9 9,7 12,0 10 5 16 9 E 1028,0 58 56 0,0
14.11.2018 16:00:00 10,3 6,4 10,7 11,5 9,5 12,0 11 6 17 9 E 1027,9 70 60 0,0
14.11.2018 15:00:00 11,1 6,3 13,0 12,5 9,1 12,0 10 5 16 9 E 1027,7 69 60 0,0
14.11.2018 14:00:00 10,8 6,4 13,2 12,4 8,8 11,9 11 6 21 11 E 1027,8 69 60 0,0
14.11.2018 13:00:00 10,1 6,1 12,0 12,0 8,5 11,9 16 9 23 13 ESE 1028,4 43 60 0,0
14.11.2018 12:00:00 9,4 6,4 11,1 10,8 8,3 11,9 14 7 22 12 E 1029,1 29 60 0,0
14.11.2018 11:00:00 8,2 6,4 10,0 9,0 8,2 11,9 14 8 21 11 E 1029,5 16 60 0,0
14.11.2018 10:00:00 6,3 6,0 7,7 6,7 8,2 11,9 9 5 16 9 ENE 1030,0 10 60 0,0
14.11.2018 09:00:00 3,9 3,9 3,9 4,9 8,3 11,9 11 6 15 8 NE 1030,7 0,3 3 0,0
14.11.2018 08:00:00 2,8 2,8 2,5 4,6 8,4 11,9 10 5 16 9 ENE 1031,0 0,1 0 0,0
14.11.2018 07:00:00 2,8 2,8 2,7 4,7 8,6 11,9 11 6 17 9 ENE 1031,2 0,1 0 0,0
14.11.2018 06:00:00 2,5 2,5 2,4 4,9 8,7 11,9 10 5 13 7 ENE 1031,4 0,1 0 0,0
14.11.2018 05:00:00 3,8 3,8 3,7 5,0 8,9 11,9 9 5 11 6 NE 1031,5 0,1 0 0,0
14.11.2018 04:00:00 4,5 4,5 2,7 4,8 9,0 11,9 7 4 14 7 ENE 1031,6 0,2 0 0,0
14.11.2018 03:00:00 4,5 4,5 3,5 4,8 9,3 11,9 9 5 10 6 ENE 1032,1 0,1 0 0,0
14.11.2018 02:00:00 6,0 5,9 1,9 5,0 9,5 11,9 4 2 8 4 ENE 1031,7 7 0 0,0
14.11.2018 01:00:00 5,5 5,4 2,0 5,3 9,7 11,9 5 3 5 3 E 1032,0 0,2 0 0,0
14.11.2018 00:00:00 6,3 6,1 2,0 5,7 9,9 11,9 4 2 5 3 WNW 1031,8 7 0 0,0
13.11.2018 23:00:00 6,1 6,1 2,4 6,2 10,1 11,9 3 1 11 6 E 1031,8 4,8 0 0,0
13.11.2018 22:00:00 6,3 5,9 4,7 6,7 10,4 11,9 11 6 14 8 W 1031,7 9 0 0,0
13.11.2018 21:00:00 7,3 6,0 4,0 7,1 10,5 11,9 6 4 8 4 WSW 1031,5 29 0 0,0
13.11.2018 20:00:00 7,2 6,1 4,5 7,8 10,7 11,9 3 2 10 6 SSE 1031,3 33 0 0,0
13.11.2018 19:00:00 7,9 6,0 6,4 8,3 10,9 11,9 7 4 16 9 WSW 1031,0 38 0 0,0
13.11.2018 18:00:00 8,6 6,0 6,5 9,0 11,0 11,9 9 5 16 9 SW 1030,2 70 0 0,0
13.11.2018 17:00:00 9,6 6,6 8,2 10,1 11,0 11,9 14 8 31 17 WSW 1029,3 70 40 0,0
13.11.2018 16:00:00 10,5 6,6 10,3 11,0 11,0 11,9 20 11 32 18 WSW 1028,6 55 49 0,0
13.11.2018 15:00:00 10,3 6,8 10,6 11,2 10,9 11,9 22 12 46 25 WSW 1028,1 65 23 0,0
13.11.2018 14:00:00 10,1 6,8 10,4 11,8 10,9 11,9 26 14 44 24 WSW 1027,9 51 48 0,0
13.11.2018 13:00:00 9,7 7,6 9,8 10,6 10,9 11,8 26 14 46 25 W 1027,5 43 7 0,6
13.11.2018 12:00:00 9,6 8,5 9,9 10,9 10,9 11,8 20 11 38 21 WSW 1027,3 46 2 0,0
13.11.2018 11:00:00 9,2 8,4 9,5 10,2 10,9 11,8 24 13 37 20 WSW 1027,3 59 0 0,0
13.11.2018 10:00:00 9,0 8,8 9,3 9,9 11,0 11,8 24 13 32 17 WSW 1026,6 39 0 2,2
13.11.2018 09:00:00 8,7 8,6 8,7 9,9 11,1 11,8 17 9 28 15 WSW 1025,9 2,2 0 1,1
13.11.2018 08:00:00 9,0 8,6 8,8 10,1 11,1 11,8 13 7 29 16 SW 1024,2 22 0 0,4
13.11.2018 07:00:00 9,4 9,0 9,2 10,3 11,2 11,8 14 7 29 16 SW 1023,5 14 0 0,5
13.11.2018 06:00:00 9,6 9,1 9,3 10,4 11,3 11,8 14 8 32 17 SW 1023,0 12 0 1,2
13.11.2018 05:00:00 9,8 9,6 9,7 10,6 11,3 11,8 18 10 36 19 WSW 1022,8 5 0 1,7
13.11.2018 04:00:00 9,8 9,8 9,9 10,7 11,4 11,8 11 6 19 11 WSW 1022,1 0,1 0 1,3
13.11.2018 03:00:00 10,0 10,0 10,0 10,8 11,4 11,8 10 6 16 9 WSW 1022,0 0,2 0 1,5
13.11.2018 02:00:00 10,1 10,1 10,0 11,0 11,5 11,8 6 3 13 7 W 1021,3 2,1 0 0,3
13.11.2018 01:00:00 10,2 10,1 10,0 11,2 11,6 11,8 8 4 9 5 W 1020,9 2,5 0 0,1
13.11.2018 00:00:00 10,6 10,6 10,5 11,5 11,6 11,8 6 3 19 10 SW 1020,4 4,2 0 0,3
12.11.2018 23:00:00 10,9 10,9 10,8 11,7 11,6 11,8 14 8 23 13 W 1020,1 5 0 1,8
12.11.2018 22:00:00 11,6 11,5 11,4 12,0 11,6 11,9 14 8 28 15 W 1019,2 7 0 2,1
12.11.2018 21:00:00 12,3 12,1 12,1 12,2 11,6 11,9 18 10 26 14 WSW 1019,1 8 0 2,9
12.11.2018 20:00:00 12,6 12,6 12,3 12,3 11,6 11,9 8 5 20 11 WSW 1018,5 3,4 0 2,3
12.11.2018 19:00:00 12,9 12,3 12,5 12,5 11,6 11,9 16 9 23 12 WSW 1018,4 8 0 0,6
12.11.2018 18:00:00 13,1 12,9 12,6 12,7 11,6 11,9 11 6 19 10 SW 1017,6 6 0 1,9
12.11.2018 17:00:00 13,0 12,8 12,7 13,1 11,4 11,9 14 8 49 26 WSW 1017,1 4,7 0 5,2
12.11.2018 16:00:00 17,0 11,2 16,0 14,1 11,2 11,9 17 9 30 16 SW 1014,9 70 21 0,0
12.11.2018 15:00:00 17,7 11,4 18,5 14,1 11,1 11,9 20 11 34 18 SW 1014,3 70 26 0,0
12.11.2018 14:00:00 17,0 10,7 16,9 13,5 10,9 11,9 22 12 39 21 SW 1014,5 70 5 0,0
12.11.2018 13:00:00 16,4 10,2 16,1 12,8 10,8 11,9 23 12 29 16 SSW 1014,6 70 2 0,0
12.11.2018 12:00:00 15,4 9,5 14,7 12,0 10,7 11,9 19 10 43 23 SW 1014,8 70 0 0,0
12.11.2018 11:00:00 15,7 8,9 15,0 11,7 10,6 11,9 27 14 51 27 SW 1014,6 70 0 0,0
12.11.2018 10:00:00 14,7 8,4 13,7 11,2 10,6 11,9 14 7 24 13 SSW 1014,4 70 0 0,0
12.11.2018 09:00:00 14,5 8,5 13,7 11,1 10,6 11,9 12 6 26 14 S 1014,2 70 0 0,0
12.11.2018 08:00:00 15,0 9,2 13,8 11,0 10,5 11,9 16 8 35 19 SSW 1013,7 70 0 0,0
12.11.2018 07:00:00 14,9 9,5 13,8 10,9 10,5 11,9 22 12 40 21 SW 1013,1 70 0 0,0
12.11.2018 06:00:00 14,3 9,7 13,2 10,6 10,5 11,9 15 8 29 15 SSW 1012,9 70 0 0,0
12.11.2018 05:00:00 13,1 9,5 12,0 10,3 10,5 11,9 6 4 17 9 S 1013,1 70 0 0,1
12.11.2018 04:00:00 13,1 9,4 11,7 10,1 10,5 11,8 5 3 11 6 S 1013,2 67 0 0,0
12.11.2018 03:00:00 12,9 9,4 11,7 9,9 10,5 11,8 7 4 16 8 SSW 1013,8 70 0 0,0
12.11.2018 02:00:00 12,7 9,7 11,5 9,9 10,6 11,8 6 3 14 8 S 1013,7 70 0 0,0
12.11.2018 01:00:00 11,9 10,2 9,5 9,8 10,7 11,8 5 3 11 6 ESE 1014,0 51 0 0,0
12.11.2018 00:00:00 11,8 10,5 9,9 10,3 10,7 11,8 4 2 7 4 ESE 1014,1 38 0 0,0
11.11.2018 23:00:00 12,1 10,6 9,8 10,5 10,7 11,8 4 2 17 9 W 1014,1 45 0 0,0
11.11.2018 22:00:00 12,9 10,3 12,0 10,8 10,7 11,8 12 7 34 18 WSW 1013,6 64 0 0,0
11.11.2018 21:00:00 13,9 10,0 13,0 10,7 10,7 11,8 22 12 34 18 SW 1012,1 70 0 0,0
11.11.2018 20:00:00 13,4 9,5 12,4 10,4 10,8 11,8 16 9 29 16 SSW 1011,8 70 0 0,0

tt = Température de l'air
td = dewpoint
tt 5cm = Température de l'air 5cm
tt -5cm = Température de l'air -5cm
tt -20cm = Température de l'air -20cm
tt -100cm = Température de l'air -100cm
ff = Vitesse du vent
fx = gusts
dd = Direction du vent
ppp = reduced air pressure
vv = visibility
sd = Ensoleillement
rr = Quantités de précipitations

stations d'obs. à proximité